XTAR-EUR

Last updated on Mon Oct 14 2024 00:02:37 GMT+0000 (Coordinated Universal Time)

1 28542U 05005A 24287.09322623 .00000152 00000+0 00000+0 0 9997 2 28542 2.7482 84.3106 0004179 135.3410 225.0802 1.00272579 72052
UTC large
Height (km)
Speed (km/s)
/
Latitude / Longitude
Inclination (degrees)
Orbital Period (minutes)
Azimuth
Elevation
Range (km)
Doppler Factor

Next 0 passes for location: London (51.5072 / 0.1276)

Sorry there are no passes over London.